RH
6 6 6 7 7 8 8 10 10 13 16 16 22 26 20 16 17 13 5 5 6 6 7 8 9 9 8 8 8 9 9 8 12 20 38 44 41 36 35 34 34 35 38 38 41
6 7 7 8 8 10 12 15 19 18 22 20 19 19 14 16 8 6 7 7 9 9 10 11 11 12 12 10 9 8 7 6 8 9 11 18 21 46 39 39 42 39 36 40 44
8 8 10 12 13 17 21 24 26 28 25 20 16 13 14 15 11 11 8 10 12 13 14 14 14 14 14 13 13 11 10 7 6 5 5 6 7 8 8 13 15 12 8 6 9
10 12 16 19 18 26 32 36 33 24 19 23 43 17 12 13 15 16 17 15 17 18 18 17 15 15 15 15 14 14 11 10 7 6 6 6 5 6 7 6 7 8 11 10 7
14 16 24 28 26 31 33 34 32 21 33 49 38 7 9 12 12 21 25 14 16 18 22 19 17 16 15 15 15 15 13 11 9 7 6 6 6 7 8 8 8 9 10 12 15
41 23 24 30 30 33 33 32 18 41 39 48 15 9 19 21 28 28 32 29 30 33 34 32 31 26 23 23 21 19 15 13 10 9 10 8 6 8 9 12 11 10 9 7 7
64 64 73 49 38 34 25 22 33 68 59 17 10 15 21 29 28 32 44 30 30 40 38 35 36 35 31 27 25 22 19 16 13 12 11 10 7 9 10 9 9 10 9 7 7
76 63 64 66 75 51 18 30 65 61 20 12 20 22 17 28 33 32 36 38 38 36 42 38 35 39 37 33 27 25 22 20 17 16 14 12 11 12 12 12 12 11 9 6 5
96 96 96 91 77 72 72 66 43 18 10 9 15 32 23 20 27 34 39 42 43 42 36 36 36 36 34 27 27 23 28 29 24 21 17 14 18 16 12 11 10 6 4 4 6
88 99 97 92 89 66 28 56 40 16 12 12 20 34 33 31 28 43 43 42 50 47 42 41 37 35 33 28 27 24 22 22 21 18 14 11 12 9 7 6 6 5 4 4 8
63 75 60 44 41 46 28 19 24 27 21 22 24 42 37 42 52 43 46 51 53 49 48 44 35 31 29 26 23 20 20 18 15 14 14 12 14 13 12 9 6 4 4 12 32
58 58 45 48 25 32 60 41 50 49 47 40 39 48 66 59 44 46 48 49 49 48 47 44 37 34 28 22 20 18 17 18 17 16 15 13 12 10 8 5 8 11 13 94 99
39 48 60 83 89 88 66 71 77 70 61 42 60 48 52 61 50 49 51 47 46 43 44 39 32 28 25 22 20 21 19 18 17 15 14 11 9 7 5 9 13 15 17 37 65
59 72 65 85 69 73 86 95 95 86 70 40 50 46 46 51 48 51 48 47 42 42 39 29 27 25 25 24 21 20 20 19 16 13 9 11 10 5 8 12 22 34 21 25 20
78 84 86 85 83 92 100 99 96 95 80 49 40 39 42 44 44 43 44 42 41 39 35 28 28 27 25 23 20 19 16 15 20 18 15 12 25 8 11 35 51 61 48 38 44
99 99 95 93 86 100 99 98 98 92 61 58 45 43 46 50 47 46 45 48 50 47 42 36 28 24 24 21 16 16 21 45 38 30 20 22 32 12 24 34 66 66 54 58 55
67 79 83 85 87 90 84 81 80 70 50 52 54 48 49 46 48 46 47 46 45 41 37 30 26 21 17 16 24 36 55 58 48 35 20 30 33 26 23 43 79 75 96 83 48
84 89 87 85 88 82 78 81 87 50 55 69 64 69 59 52 49 52 53 50 49 42 31 23 17 18 21 27 48 54 60 62 67 33 34 30 39 25 30 61 73 76 100 88 100
100 100 99 98 100 100 80 72 70 55 60 71 82 67 58 52 52 49 49 49 47 42 30 20 20 33 50 72 72 59 59 71 57 61 43 38 42 44 51 80 97 98 98 100 100
98 97 90 72 79 89 87 96 59 61 66 61 63 61 52 47 46 42 40 36 38 39 31 29 35 49 67 72 69 80 66 69 71 69 54 54 40 47 76 100 100 100 100 100 100
34 33 38 23 11 19 48 59 55 42 29 45 42 42 35 32 42 50 47 37 35 36 37 65 89 57 56 73 92 100 72 76 93 83 69 55 54 62 85 97 96 100 100 100 100
10 12 16 10 9 9 16 32 21 22 20 30 35 21 30 66 74 71 69 59 52 38 51 77 75 46 34 99 97 100 86 80 88 99 83 66 91 63 98 100 91 96 100 100 100
7 6 6 6 6 6 6 5 5 5 12 16 28 43 92 80 77 62 82 71 62 80 100 59 42 24 100 100 87 84 86 84 96 100 91 79 79 85 83 94 100 100 97 99 100
8 7 6 6 6 6 5 5 6 6 5 10 37 61 100 71 44 87 75 64 100 96 24 22 41 51 90 100 100 85 96 85 96 96 97 74 80 77 79 83 85 80 65 69 82
10 9 8 8 7 6 11 12 11 8 7 17 46 80 52 57 100 97 68 58 43 16 8 9 22 71 82 95 96 94 100 100 96 100 91 78 79 83 81 75 71 67 66 55 48
15 14 16 19 40 43 36 32 35 27 33 68 41 41 75 46 56 87 100 97 92 13 7 11 56 83 82 85 90 100 100 99 100 98 82 82 75 74 71 62 63 65 70 62 56
18 21 94 63 70 100 64 36 26 37 50 27 36 100 100 88 49 23 19 21 11 17 34 44 82 89 96 100 100 94 95 100 99 100 95 82 81 74 81 86 78 70 68 62 59
Wind_Speed
49 50 48 47 46 45 44 43 42 41 42 43 44 45 42 36 34 29 25 24 23 23 22 20 19 18 18 20 19 21 18 11 15 20 21 28 29 35 39 39 39 36 36 37 36
51 51 50 49 48 46 46 45 45 45 44 46 46 44 38 30 25 27 27 26 26 25 26 24 25 23 23 26 24 27 23 18 21 21 18 20 20 25 32 30 29 30 31 32 36
53 52 51 49 48 47 48 48 49 49 48 45 45 42 36 26 26 30 31 30 29 27 28 27 28 28 29 29 30 31 27 26 22 24 24 21 20 23 24 28 27 28 30 29 28
54 54 52 51 50 52 51 52 51 48 44 43 44 45 35 29 30 33 35 35 33 31 33 34 33 35 33 33 32 36 33 34 31 31 30 31 30 27 31 31 30 33 37 40 40
54 55 56 55 55 56 56 55 53 46 49 46 46 41 38 28 35 36 38 38 38 38 36 40 40 41 42 38 38 39 37 39 39 39 38 38 37 39 39 36 36 38 39 43 48
57 58 59 58 57 58 57 56 49 54 50 46 43 40 40 30 38 40 43 39 39 39 42 42 43 46 46 45 45 45 44 43 44 44 42 46 46 48 46 44 43 44 46 47 50
60 59 61 60 56 53 53 53 52 56 48 46 44 46 47 41 44 45 49 47 47 45 45 46 47 48 50 50 50 48 49 46 47 49 52 54 53 55 55 57 56 54 52 54 54
61 61 60 55 57 50 53 53 59 48 47 49 47 49 50 46 48 49 49 53 53 51 49 49 47 47 46 49 47 49 48 50 50 54 56 57 57 62 60 59 61 63 64 61 58
64 62 55 53 55 56 58 53 48 51 52 51 52 52 54 53 50 51 52 48 49 49 47 44 42 44 46 47 47 49 51 51 55 56 58 61 56 61 62 65 67 66 65 67 63
52 50 49 50 47 51 50 52 50 53 53 54 58 55 55 56 57 53 52 50 49 47 46 45 46 44 45 50 49 51 51 48 52 58 60 63 60 58 63 67 69 70 70 71 64
54 50 49 50 52 50 51 53 53 53 55 56 59 59 62 60 58 55 51 48 44 43 45 47 46 43 48 50 50 52 53 52 53 60 63 66 65 66 69 70 70 71 73 56 52
57 55 52 54 54 54 55 54 54 59 60 58 61 57 49 50 52 50 49 44 43 44 45 45 45 48 51 52 52 55 57 56 53 59 63 62 64 64 63 69 61 57 49 46 51
59 58 58 59 59 58 58 60 55 63 62 55 54 51 50 55 51 49 47 46 44 43 44 46 47 48 49 53 54 55 57 57 60 59 57 60 63 60 60 54 53 49 44 51 49
61 61 60 63 55 55 52 55 56 57 56 52 53 51 51 50 47 47 47 48 48 48 49 51 48 47 51 53 53 53 56 59 57 54 54 54 57 51 50 49 46 47 49 51 52
59 60 63 63 62 62 62 60 61 58 56 53 54 53 49 46 43 42 43 45 45 48 50 49 50 53 54 53 53 55 56 51 44 41 43 44 46 43 45 40 39 41 44 49 55
66 69 68 66 60 60 61 60 60 59 57 55 55 53 50 46 46 46 46 47 45 49 50 50 51 52 51 53 53 52 45 37 37 36 37 36 42 36 41 39 36 37 37 47 45
65 64 63 63 60 63 64 65 64 65 59 57 54 53 52 52 54 53 52 51 48 48 47 47 46 47 48 47 43 41 40 39 39 36 34 35 41 39 41 37 31 33 25 35 50
67 66 66 65 66 65 66 66 68 61 57 53 53 53 53 53 54 55 53 51 49 47 47 46 43 42 42 41 38 40 36 37 42 38 32 35 35 37 38 28 26 28 26 32 51
72 71 69 67 66 64 63 64 66 54 52 51 48 50 53 53 53 52 51 47 44 46 45 44 42 37 35 34 36 35 32 35 36 33 33 31 28 29 30 29 27 28 25 27 42
64 62 59 58 59 60 60 60 60 54 50 53 52 50 49 46 48 49 50 51 46 40 40 38 38 35 33 34 33 32 33 32 33 28 30 29 27 28 22 18 23 16 25 35 51
65 64 61 59 59 60 61 61 56 51 50 48 51 49 46 45 43 44 46 46 45 42 38 33 34 35 35 32 30 33 32 31 29 29 31 32 29 26 27 28 29 25 13 7 32
65 65 63 61 61 64 63 58 55 50 51 51 48 50 46 39 39 44 45 42 38 36 36 36 41 40 39 32 30 30 29 30 31 25 29 32 25 29 31 34 34 35 34 22 18
66 66 64 65 66 64 63 61 60 57 54 51 50 45 41 41 43 45 43 40 38 35 38 40 41 37 38 36 26 30 28 31 31 29 28 31 32 33 38 33 28 28 30 32 29
67 67 67 67 65 62 62 60 58 55 55 52 49 47 47 47 47 45 41 39 42 40 43 39 38 38 43 35 26 30 38 39 34 32 30 34 37 38 36 34 33 36 37 38 41
65 64 61 61 61 60 54 52 52 54 54 49 46 53 49 45 48 43 38 40 46 45 41 38 36 36 42 38 40 39 39 39 36 39 35 31 36 34 32 35 39 39 38 39 43
61 57 54 53 49 49 46 44 41 39 40 45 43 41 51 52 44 39 44 46 46 42 39 36 35 35 36 38 43 41 40 39 33 34 34 28 30 29 32 35 38 42 45 44 42
52 48 47 46 37 38 30 31 32 35 42 44 42 44 36 35 40 44 46 44 42 38 36 35 35 34 34 35 38 45 40 36 32 36 34 32 31 34 38 43 38 36 36 38 40
Wind_Direction
264 264 265 266 266 266 269 272 273 272 273 270 274 276 277 278 281 283 272 266 262 265 265 264 268 267 267 267 268 272 274 264 254 247 228 240 243 253 257 263 269 280 289 285 282
265 265 265 265 267 267 266 269 271 271 270 270 271 274 274 274 274 274 263 261 265 268 271 272 274 275 276 274 275 273 271 261 252 259 249 244 243 247 262 270 271 276 281 282 281
264 265 265 266 267 267 266 269 271 272 273 271 272 272 271 266 265 265 264 266 268 271 273 275 277 278 279 279 281 280 286 280 275 267 264 257 262 264 267 270 273 274 283 280 273
264 264 264 265 266 267 268 272 272 271 269 270 275 273 263 260 260 261 265 266 272 274 276 280 280 281 280 281 282 282 281 277 275 275 275 275 273 279 282 279 284 287 285 283 280
264 263 264 265 267 268 270 272 270 264 271 273 270 263 260 252 256 266 265 269 274 279 279 277 278 279 279 284 283 284 282 279 280 277 276 276 275 280 276 279 284 281 279 279 279
264 264 265 266 268 268 269 270 264 270 267 267 264 257 260 254 258 264 267 272 276 279 280 280 280 280 283 285 284 280 280 280 278 279 280 274 269 274 281 282 280 280 284 283 280
262 263 264 266 265 266 266 261 263 272 263 258 258 256 263 261 264 264 264 271 276 280 283 284 284 280 280 281 281 283 282 281 277 274 274 276 270 282 282 282 284 285 282 281 278
259 259 258 259 262 261 257 260 270 264 261 257 260 262 264 264 267 266 266 271 273 276 279 280 279 278 277 275 279 280 282 281 276 274 276 277 274 281 281 284 284 286 288 284 277
259 262 265 259 257 257 261 267 263 263 261 262 262 267 266 266 269 274 274 278 276 278 277 275 271 269 270 271 274 274 276 279 278 278 280 281 280 281 281 284 285 286 285 280 273
264 264 261 258 261 257 259 261 261 264 263 261 263 271 269 271 272 273 273 275 278 274 275 275 272 271 273 272 270 270 271 274 277 279 279 279 281 281 285 286 285 283 281 278 273
261 261 259 258 260 264 262 263 260 262 262 264 265 269 273 273 274 272 274 276 273 272 271 268 268 270 273 271 270 272 273 276 279 281 279 281 283 281 283 284 281 279 276 275 268
259 258 255 257 259 262 261 264 263 262 262 261 265 272 276 273 274 274 275 273 268 266 265 268 269 271 271 273 274 274 276 280 280 281 283 280 281 283 285 280 285 285 286 258 257
253 254 256 257 260 262 261 260 261 261 266 267 267 270 273 272 275 277 276 274 273 267 267 266 267 269 270 271 273 277 280 280 281 280 283 286 283 284 282 288 292 287 270 248 238
253 254 254 261 257 258 261 261 264 268 268 264 274 270 271 272 272 270 273 271 271 272 273 272 275 275 274 277 280 281 285 286 287 287 284 285 290 285 287 295 287 271 263 252 248
252 253 254 257 260 261 262 264 267 269 270 270 270 272 274 272 274 270 269 268 270 270 270 276 277 277 277 280 282 282 283 284 285 283 285 289 295 295 302 298 283 276 264 253 241
254 256 257 258 260 262 264 265 265 266 269 269 271 273 275 276 272 270 269 269 269 269 270 270 270 272 275 276 279 281 281 279 276 282 289 295 293 300 297 291 288 283 260 247 248
254 254 257 259 261 262 263 264 263 264 271 271 269 270 269 270 272 271 270 271 271 271 270 269 270 271 273 275 275 275 276 274 274 282 294 292 291 295 290 291 291 276 273 254 260
254 256 257 259 260 260 260 259 258 268 269 266 267 267 267 266 267 271 271 272 272 273 273 275 273 272 274 274 270 270 277 275 275 283 287 291 293 288 292 285 305 288 275 251 232
255 257 257 257 256 255 254 255 261 266 265 263 263 263 265 267 270 270 273 269 268 272 274 273 272 274 275 271 268 273 275 267 273 277 282 284 281 283 284 301 303 287 277 242 230
252 252 254 255 255 254 254 256 260 262 265 265 262 259 262 265 266 266 265 267 271 273 271 270 269 271 272 268 280 268 264 266 269 274 277 274 273 279 276 302 297 230 213 219 219
250 251 251 252 250 249 247 255 262 262 260 256 262 261 260 259 257 257 262 264 266 270 271 272 270 274 273 273 276 256 259 267 267 269 272 273 266 271 281 281 288 295 249 223 200
250 250 249 248 248 250 253 255 258 254 254 253 258 258 258 252 248 251 255 256 259 260 263 260 267 272 276 263 263 256 264 268 269 276 269 262 259 258 272 274 274 282 283 276 255
248 249 246 246 248 250 253 254 255 254 251 254 255 254 247 243 250 255 252 254 255 250 247 260 264 261 256 255 258 255 268 275 271 264 263 252 245 246 257 266 274 275 273 286 265
246 247 246 247 249 252 253 254 254 253 253 252 252 244 240 247 253 247 248 249 244 248 258 256 253 257 258 249 265 267 268 276 270 253 257 257 250 244 257 278 281 279 284 280 277
244 245 245 248 249 250 249 250 252 252 252 249 242 239 247 246 241 254 252 245 249 255 256 253 251 254 254 261 269 274 262 264 260 254 261 258 258 257 272 284 290 290 289 286 280
241 241 245 245 243 249 249 248 250 250 240 235 239 251 249 242 243 235 235 240 251 258 257 250 251 252 259 258 261 257 263 259 253 252 257 255 263 274 279 279 284 283 285 285 285
241 237 228 237 235 238 249 255 252 235 227 225 217 226 239 228 239 240 243 247 249 251 253 250 252 250 251 239 253 253 258 254 252 255 261 263 270 273 275 284 282 278 279 282 284